Regional Weather Roundup
Issued by NWS Wakefield, VA

Home | Current Version | Previous Version | Graphics & Text | Print | Product List | Glossary On
Versions: 1 2 3 4 5 6 7 8 9 10 11 12 13 14 15 16 17 18 19 20 21 22 23 24 25 26 27 28 29 30 31 32 33 34 35 36 37 38 39 40 41 42 43 44 45 46 47 48 49 50
000
ASUS41 KAKQ 261514
RWRAKQ

REGIONAL WEATHER ROUNDUP
NATIONAL WEATHER SERVICE WAKEFIELD VA
1000 AM EST SUN FEB 26 2017

Note: "fair" indicates few or no clouds below 12,000 feet with no
significant weather and/or obstructions to visibility. * = Denotes
station may not report precipitation (e.g., rain,snow,etc.),
thunder or fog.

VAZ042-051-052>054-056-261600-
NORTHERN VIRGINIA

CITY           SKY/WX    TMP DP  RH WIND       PRES   REMARKS
WASH NATIONAL  MOSUNNY   40  17  39 NW16G25   30.16R
DULLES         MOSUNNY   38  15  39 NW18G25   30.14R
FORT BELVOIR   SUNNY     40  15  37 W16G22    30.15R
QUANTICO       SUNNY     41  17  38 N13G28    30.17R
FREDERICKSBRG* SUNNY     40  20  44 N7        30.15R
STAFFORD*      SUNNY     39  20  45 NW10G16   30.19S
WARRENTON      MOSUNNY   41  12  30 W12G17    30.14S
CULPEPER*      SUNNY     40  18  40 W8        30.16R
MANASSAS*      SUNNY     39  17  41 NW13G20   30.16R
LEESBURG*      CLOUDY    41  23  48 MISG      30.15R
WINCHESTER     CLOUDY    34  18  51 W15G22    30.12R WCI  24
FRONT ROYAL*   MOSUNNY   36  18  48 W7        30.11R
LURAY*         NOT AVBL
$$

VAZ048-049-060>072-079>083-261600-
CENTRAL AND SOUTH CENTRAL VIRGINIA

CITY           SKY/WX    TMP DP  RH WIND       PRES   REMARKS
RICHMOND       SUNNY     43  20  39 NW9       30.15R
CHESTERFIELD*  FAIR      45  14  29 NW9       30.17R
PETERSBURG*    SUNNY     43  19  38 NW9       30.16S
HANOVER        SUNNY     42  19  39 NW8       30.16R
TAPPAHANNOCK*  SUNNY     41   6  23 NW7       30.16R
QUINTON*       FAIR      41  22  47 NW7       30.16R
CHARLOTTSVILLE SUNNY     40  17  39 VRB6      30.13R
GORDONSVILLE*  NOT AVBL
ORANGE*        SUNNY     37  19  48 CALM      30.15S
LOUISA*        SUNNY     45  21  39 W8        30.13S
BUMPASS*       FAIR      41  18  39 NW6       30.14R
FARMVILLE*     SUNNY     43  18  36 W5        30.15S
CREWE*         NOT AVBL
FORT PICKETT*  NOT AVBL
CHASE CITY*    FAIR      40  16  37 NW9       30.17R
CLARKSVILLE*   NOT AVBL
SOUTH HILL*    SUNNY     41  22  46 NW6       30.23R
LAWRENCEVILLE* FAIR      43  21  41 W7        30.17R
EMPORIA*       SUNNY     43  23  45 W7        30.18S
$$

VAZ088>098-261600-
SOUTHEAST VIRGINIA

CITY           SKY/WX    TMP DP  RH WIND       PRES   REMARKS
NORFOLK        SUNNY     46  26  45 N10G18    30.15R
VIRGINIA BEACH MOSUNNY   45  27  49 N14       30.14R
NORFOLK NAVAL  SUNNY     47  24  40 N8        30.16R
WEST POINT*    SUNNY     43  21  42 W9        30.18R
SALUDA*        NOT AVBL
NEWPORT NEWS   SUNNY     44  25  47 N9        30.15R
LANGLEY AFB    SUNNY     43  25  47 N9        30.15R
FORT EUSTIS    SUNNY     45  24  43 NW7       30.13R
WILLIAMSBURG*  SUNNY     45  25  45 NW9       30.16R
HR EXEC AP*    NOT AVBL
FRANKLIN*      SUNNY     45  24  42 N6        30.16S
US460-WAKEFLD  SUNNY     44  24  45 VRB7      30.16R
$$

VAZ020-022-025-037-045-261600-
WEST CENTRAL AND SOUTHWEST VIRGINIA

CITY           SKY/WX    TMP DP  RH WIND       PRES   REMARKS
STAUNTON*      SUNNY     36  14  41 W3        30.13R
WAYNESBORO*    NOT AVBL
HOT SPRINGS VA SUNNY     27  10  50 W22G29    29.98S WCI  12
LYNCHBURG      SUNNY     38  16  40 VRB7      30.16R
DANVILLE       SUNNY     41  19  41 NW10      30.19R
SOUTH BOSTON*  NOT AVBL
MARTINSVILLE   SUNNY     39  15  37 NW10G16   30.21S
ROANOKE        SUNNY     38  13  35 NW16      30.16R
BLACKSBURG     SUNNY     33  18  53 W10G16    30.15R
DUBLIN*        SUNNY     34  16  47 W10G18    30.14R
MARION*        SUNNY     33  17  51 W18G24    30.14S WCI  21
HILLSVILLE*    SUNNY     30  16  56 NW12G18   30.10R WCI  20
RICHLANDS*     FAIR      29  17  61 CALM      30.16R
WISE*          SUNNY     32  14  47 CALM      30.18R
ABINGDON*      SUNNY     34  18  51 W10       30.19S
$$

MDZ021>025-VAZ099-100-261600-
SOUTHERN MARYLAND AND THE DELMARVA PENINSULA

CITY           SKY/WX    TMP DP  RH WIND       PRES   REMARKS
PATUXENT RIVER MOSUNNY   40  20  44 NW20      30.14R
BAY BRIDGE APT SUNNY     39  19  45 NW14G20   30.14R
LEONARDTOWN    SUNNY     37  18  44 NW12G21   30.16R
DOVER          CLOUDY    39  23  53 NW20G25   30.08R
GEORGETOWN     MOSUNNY   40  20  44 NW9G22    30.10R
EASTON         MOSUNNY   39  18  41 NW20G25   30.16R
CAMBRIDGE      SUNNY     39  18  41 NW13G23   30.14R
SALISBURY      SUNNY     41  24  51 W14G23    30.10R
OCEAN CITY     SUNNY     42  23  46 NW13G23   30.09R
WALLOPS ISLAND SUNNY     42  23  46 NW16G25   30.11R
ACCOMACK*      SUNNY     42  26  53 NW21      30.14R
$$

NCZ012>017-030>032-261600-
NORTH CENTRAL AND EASTERN NORTH CAROLINA

CITY           SKY/WX    TMP DP  RH WIND       PRES   REMARKS
ROANOKE RAPIDS FAIR      43  23  45 NW6       30.18R
RALEIGH        SUNNY     44  15  31 VRB5      30.20R
ELIZABETH CITY SUNNY     48  26  42 NW14      30.15R
AHOSKIE*         N/A     44  22  42 NW5       30.17S
EDENTON*       SUNNY     48  26  41 N12       30.16R
CURRITUCK*     SUNNY     47  26  43 NW7       30.15R
KILL DEVIL HLS NOT AVBL
MANTEO         MOSUNNY   49  33  52 N8        30.14R
CAPE HATTERAS  SUNNY     53  31  42 VRB7      30.13R
TARBORO*       NOT AVBL
GOLDSBORO      SUNNY     47  17  30 NW7       30.18R
WASHINGTON     SUNNY     47  24  41 NW8       30.17S
GREENVILLE     SUNNY     46  21  36 N9        30.19S
NEW BERN       SUNNY     48  25  40 N9        30.18R
WILMINGTON     SUNNY     53  21  28 N10       30.19R
$$

VAZ048-261600-
ELSEWHERE

CITY           SKY/WX    TMP DP  RH WIND       PRES   REMARKS
HARRISBURG PA  PTSUNNY   35  14  42 NW17      30.10R WCI  25
BALTIMORE      MOSUNNY   39  17  41 W16       30.13R
ANNAPOLIS      SUNNY     40  18  41 NW13G21   30.13R
ANDREWS AFB    SUNNY     38  15  39 W14G23    30.13R
PHILADELPHIA   PTSUNNY   38  14  37 W22G30    30.08R
HENDERSON NC   SUNNY     40  17  40 W12G17    30.18R
GREENSBORO     SUNNY     40  14  34 NW13      30.19R
ROCKY MOUNT    SUNNY     46  21  37 NW13      30.19R
$$

VAZ100-261600-
MARINE

STATION/POSITION TIME  TEMP    WIND        PRES    WAVE   SWELL
                       AIR SEA DIR/SP/G            HT/PER HT/PER
                 (UTC) (F)     (DEG/KT/KT) (MB)    (FT/S) (FT/S)
CAPE MAY NJ      1448   39 45  310/ 20/ 25 1018.4R
LEWES DE         1448          320/ 20/ 25   N/A
OCEAN-CITY-INLET 1448          340/ 15/ 19   N/A
WACHAPREAGUE VA  1448   42 53  300/  4/ 18 1020.2R
THOMAS POINT MD  1500   36 44  310/ 19/ 22   N/A
GOOSES REEF MD   1500   38 44  340/ 17/ 21 1021.1    2/ 3
COVE POINT MD    1448   37     340/ 14/ 23 1021.0R
SOLOMONS ISLAND  1442   38 44  320/ 14/ 22   N/A
BISHOPS HEAD MD  1448   38 47  310/ 17/ 22 1020.8R
PINEY POINT MD   1448          340/ 18/ 21   N/A
POTOMAC MD       1500   39 45  310/ 16/ 19 1019.9    2/ 3
CAMBRIDGE MD     1448   37 47  290/ 14/ 23 1019.7R
LEWISETTA VA     1448   39 50  330/ 15/ 20 1020.7R
RAPPAHANNOCK LGT 1448          320/ 14/ 18 1021.3R
YORK RVR RNG VA  1448   41     310/ 11/ 13 1020.3R
YORKTOWN VA      1448   40 50  310/ 11/ 16 1020.8R
JAMESTOWN VA     1500   41 54  310/  6/ 10   N/A     0
DOMINION TERM VA 1448   43     320/  9/ 11 1020.9R
KIPTOPEKE VA     1442      49  340/ 15/ 19   N/A
CHES BAY BRIDGE  1448   41 48  340/ 12/ 14 1020.9R
CAPE HENRY VA    1448   41     310/ 13/ 16   N/A
WILLOUBY STN VA  1448   42     350/  7/  9 1021.7R
S CRANEY ISL VA  1448   43     360/  7/ 10 1020.7R
CAPE HENRY BUOY  1442      48                N/A     4/10   2/11
OFFSHORE WE BUOY 1451      48                N/A     5/10   2/11
64NM E OF VA BCH 1450   45 51  330/ 14/ 17 1019.3R   6/11   3/11
DUCK PIER NC     1448   45 49  350/ 13/ 16 1020.1R
44100 DUCK FRF   1405      49                N/A     5/10   2/11
44056 DUCK FRF   1430      49                N/A     5/ 5   2/11
OREGON INLET NC  1442   47 60  360/ 11/ 15 1020.4R
HATTERAS NC      1448   48 63  330/ 15/ 18 1020.1R
DIAMOND SHLS NC  1450   51 72  340/ 16/ 21 1020.0R   6/ 9   3/ 9
CAPE LOOKOUT NC  1400   48     340/ 13/ 15 1020.0R
$$



USA.gov is the U.S. government's official web portal to all federal, state and local government web resources and services.